Regional Weather Roundup
Issued by NWS Northern Indiana

Home | Current Version | Previous Version | Graphics & Text | Print | Product List | Glossary On
Versions: 1 2 3 4 5 6 7 8 9 10 11 12 13 14 15 16 17 18 19 20 21 22 23 24 25 26 27 28 29 30 31 32 33 34 35 36 37 38 39 40 41 42 43 44 45 46 47 48 49 50
265
ASUS43 KIWX 231400
RWRIWX

KIWX WEATHER ROUNDUP
NATIONAL WEATHER SERVICE NORTHERN INDIANA
1000 AM EDT WED AUG 23 2017

NOTE: "FAIR" INDICATES FEW OR NO CLOUDS BELOW 12,000 FEET WITH NO
SIGNIFICANT WEATHER AND/OR OBSTRUCTIONS TO VISIBILITY.

* THESE STATIONS ARE NOT UNDER NWS QUALITY CONTROL. THEY ALSO MAY NOT
  REPORT WEATHER SUCH AS PRECIPITATION OR FOG.

INZ001>027-231500-
NORTHERN INDIANA

CITY           SKY/WX    TMP DP  RH WIND       PRES   REMARKS
MICHIGAN CITY* SUNNY     70  54  56 NW12      30.03S
SOUTH BEND     SUNNY     69  59  70 MISG      30.02S
ELKHART*       SUNNY     64  57  77 W8        30.01S
GOSHEN         SUNNY     68  55  63 NW8       30.01S
MONTICELLO*    SUNNY     63  58  83 NW6       30.04S
FORT WAYNE     SUNNY     68  59  73 NW8       30.02R
PERU/GRISSOM   SUNNY     66  58  77 NW6       30.03S

$$
INZ028>050-231500-
CENTRAL INDIANA

CITY           SKY/WX    TMP DP  RH WIND       PRES   REMARKS
LAFAYETTE      SUNNY     65  56  72 NW6       30.05S
KOKOMO*        SUNNY     66  58  75 NW7       30.05R
MUNCIE*        MOSUNNY   69  59  70 NW6       30.04R
INDIANAPOLIS   PTSUNNY   68  55  63 N6        30.05R

$$
MIZ043>046-050>051-056>058-064>065-071>073-077>080-231500-
SOUTHWEST LOWER MICHIGAN

CITY           SKY/WX    TMP DP  RH WIND       PRES   REMARKS
BATTLE CREEK   SUNNY     68  56  65 W9        30.00R
BENTON HARBOR  SUNNY     71  55  56 NW8G20    30.01R
COLDWATER*     SUNNY     67  56  67 NW6       30.00R
HILLSDALE*     SUNNY     66  54  63 NW10G16   29.99S
HOLLAND        MOSUNNY   69  56  62 NW9G18    30.00R
GRAND RAPIDS   MOSUNNY   67  56  67 NW14      29.98R
KALAMAZOO      SUNNY     69  53  56 NW12      30.00R
STURGIS*       SUNNY     66  58  73 W6        30.00S
THREE RIVERS*  FAIR      70  56  61 NW13      30.01S

$$
OHZ001>008-015>018-024>025-231500-
NORTHWEST OHIO

CITY           SKY/WX    TMP DP  RH WIND       PRES   REMARKS
DEFIANCE       SUNNY     67  57  70 NW8       30.00S
FINDLAY        SUNNY     67  58  72 W6        29.99S
TOLEDO EXPRESS SUNNY     68  58  70 W8        29.98S
TOLEDO METCALF SUNNY     70  56  61 W8        29.98S
LIMA           SUNNY     67  57  70 NW7       30.01S

$$
AND FOR LAKE MICHIGAN COASTAL AND OPEN LAKE BUOY OBSERVATIONS

STATION/POSITION TEMP    WIND        PRES    VSBY  WAVE
                 AIR SEA DIR/SP/G                  HT/PER
                 (F)     (DEG/KT/KT) (MB)    (MI)  (FT/S)
CALUMET HARBOR    67     290/  5/  7 1016.4S
MICHIGAN CITY     69     290/ 16/ 18   N/A
BURNS HARBOR      69     310/ 14/ 18 1017.3S
SAINT JOSEPH      69     320/ 13/ 17 1016.9
SOUTH LAKE BUOY   66 71  330/ 17/ 19 1015.5          4/ 4
4 MI NW BRIDGMAN  69 73  330/ 14/ 17 1016.2R         5/ 5
MICHIGAN CITY     69 73  310/ 14/ 17   N/A           4/ 6

$$
&&




USA.gov is the U.S. government's official web portal to all federal, state and local government web resources and services.